FLOCK 4G 17

导读

FLOCK 4G 17是美国Planet Labs公司于2025年1月14日发射的SuperDove系列遥感小卫星,属于Flock星座组网的组成单元。作为商业遥感卫星,它延续了Planet星座高重访频率的优势,具备多光谱成像能力,可提供每日全球对地观测数据,服务于农业监测、环境变化、城市规划、灾害评估等多个领域,助力全球地理信息数据更新与地球动态变化研究。

基本信息
目录编号:
62681
目录名称:
FLOCK 4G 17
国际标识:
2025-009CA
轨道中心:
EARTH
卫星名称:
FLOCK 4G 17
卫星全名:
FLOCK 4G 17
卫星状态:
在轨 (已飞行599 天)
发射日期:
2025-01-14 UTC
国别 :
美国 (US)
星等 :
--
轨道信息
数据来源 国际轨道数据
星历时间: 2026-09-04T12:32:01+0800
1天前
查看轨道信息
半长轴: 6851.008km
偏心率: 0.0005704
轨道倾角: 97.387°
近地点辐角 63.909°
升交点赤经 328.182°
平近点角 296.273°
近地点: 468.963km
远地点: 476.779km
周期: 94.057分钟
每日圈数: 15.309855
详细信息
使用方式:
暂无
2D轨道图
3D轨道图
轨道高度分析图
轨道倾角分析图
轨道综合分析图
查看轨道综合分析图
交会数据列表
事件ID 空间交会对象 最接近时刻(TCA) 交会距离 交会风险概率(CRP) 交会风险指数(CRI) 操作
CDM_260905-151405-384006-268123
2026-09-05T
15:14:46+0000
1.331 km
极远距离
9.6102E-6 低风险 0.55
CDM_260907-045404-839906-268121
2026-09-07T
04:54:43+0000
1.560 km
极远距离
5.490988E-6 低风险 0.5
CDM_260905-103206-268106-411621
2026-09-05T
10:32:26+0000
1.526 km
极远距离
4.479655E-6 低风险 0.48
CDM_260907-062404-735706-268121
2026-09-07T
06:24:04+0000
1.528 km
极远距离
3.798547E-6 低风险 0.47
CDM_260906-052206-268106-276321
2026-09-06T
05:22:42+0000
2.051 km
极远距离
2.530796E-6 低风险 0.43
CDM_260906-114706-268106-549122
OBJECT-D (65491)
2026-09-06T
11:47:03+0000
2.153 km
极远距离
2.110253E-6 低风险 0.41
CDM_260906-153206-268106-274722
2026-09-06T
15:32:07+0000
2.342 km
极远距离
1.822857E-6 低风险 0.4
CDM_260907-005705-879806-268122
2026-09-07T
00:57:10+0000
2.505 km
极远距离
1.574977E-6 低风险 0.39
CDM_260905-094206-213406-268122
2026-09-05T
09:42:54+0000
2.620 km
极远距离
1.526694E-6 低风险 0.39
CDM_260906-162204-839106-268122
2026-09-06T
16:22:00+0000
2.665 km
极远距离
1.468723E-6 低风险 0.38